Time,TemperatureF,DewpointF,PressureIn,WindDirection,WindDirectionDegrees,WindSpeedMPH,WindSpeedGustMPH,Humidity,HourlyPrecipIn,Conditions,Clouds,dailyrainin,SoftwareType,DateUTC
2013-07-26 00:02:00,60.0,59.0,29.93,SSW,196,3.0,-999.0,96,-99.99,,,-99.99,,2013-07-26 04:02:00,
2013-07-26 00:12:00,60.0,59.0,29.94,SSW,194,3.0,-999.0,96,-99.99,,,-99.99,,2013-07-26 04:12:00,
2013-07-26 00:22:00,60.0,59.0,29.94,SSW,194,3.0,-999.0,96,-99.99,,,-99.99,,2013-07-26 04:22:00,
2013-07-26 00:32:00,60.0,59.0,29.94,South,191,5.0,-999.0,96,-99.99,,,-99.99,,2013-07-26 04:32:00,
2013-07-26 00:42:00,60.0,59.0,29.93,South,187,4.0,-999.0,96,-99.99,,,-99.99,,2013-07-26 04:42:00,
2013-07-26 00:53:00,60.0,59.0,29.93,South,187,4.0,-999.0,96,-99.99,,,-99.99,,2013-07-26 04:53:00,
2013-07-26 01:02:00,60.0,59.0,29.91,South,183,4.0,-999.0,96,-99.99,,,-99.99,,2013-07-26 05:02:00,
2013-07-26 01:12:00,60.0,59.0,29.93,SW,236,1.0,-999.0,96,-99.99,,,-99.99,,2013-07-26 05:12:00,
2013-07-26 01:22:00,60.0,59.0,29.93,SW,236,1.0,-999.0,96,-99.99,,,-99.99,,2013-07-26 05:22:00,
2013-07-26 01:32:00,60.0,59.0,29.93,SSW,199,3.0,-999.0,96,-99.99,,,-99.99,,2013-07-26 05:32:00,
2013-07-26 01:43:00,60.0,59.0,29.92,South,188,4.0,-999.0,96,-99.99,,,-99.99,,2013-07-26 05:43:00,
2013-07-26 01:52:00,60.0,59.0,29.92,South,188,4.0,-999.0,96,-99.99,,,-99.99,,2013-07-26 05:52:00,
2013-07-26 02:02:00,60.0,59.0,29.93,SSW,200,4.0,-999.0,96,-99.99,,,-99.99,,2013-07-26 06:02:00,
2013-07-26 02:12:00,60.0,59.0,29.92,SSW,200,3.0,-999.0,96,-99.99,,,-99.99,,2013-07-26 06:12:00,
2013-07-26 02:22:00,60.0,59.0,29.92,SSW,200,3.0,-999.0,96,-99.99,,,-99.99,,2013-07-26 06:22:00,
2013-07-26 02:33:00,60.0,59.0,29.91,SSW,192,4.0,-999.0,96,-99.99,,,-99.99,,2013-07-26 06:33:00,
2013-07-26 02:43:00,59.0,58.0,29.90,SSW,198,3.0,-999.0,96,-99.99,,,-99.99,,2013-07-26 06:43:00,
2013-07-26 02:52:00,59.0,58.0,29.90,SSW,198,3.0,-999.0,96,-99.99,,,-99.99,,2013-07-26 06:52:00,
2013-07-26 03:02:00,59.0,58.0,29.89,SSW,196,4.0,-999.0,96,-99.99,,,-99.99,,2013-07-26 07:02:00,
2013-07-26 03:12:00,59.0,58.0,29.90,South,174,4.0,-999.0,96,-99.99,,,-99.99,,2013-07-26 07:12:00,
2013-07-26 03:22:00,59.0,58.0,29.90,South,174,4.0,-999.0,96,-99.99,,,-99.99,,2013-07-26 07:22:00,
2013-07-26 03:32:00,59.0,58.0,29.90,SSW,203,5.0,-999.0,97,-99.99,,,-99.99,,2013-07-26 07:32:00,
2013-07-26 03:43:00,59.0,58.0,29.90,SSW,207,4.0,-999.0,97,-99.99,,,-99.99,,2013-07-26 07:43:00,
2013-07-26 03:53:00,59.0,58.0,29.90,SSW,207,4.0,-999.0,97,-99.99,,,-99.99,,2013-07-26 07:53:00,
2013-07-26 04:02:00,59.0,58.0,29.90,SSW,200,4.0,-999.0,97,-99.99,,,-99.99,,2013-07-26 08:02:00,
2013-07-26 04:12:00,59.0,58.0,29.90,SSW,192,3.0,-999.0,97,-99.99,,,-99.99,,2013-07-26 08:12:00,
2013-07-26 04:22:00,59.0,58.0,29.90,SSW,192,3.0,-999.0,97,-99.99,,,-99.99,,2013-07-26 08:22:00,
2013-07-26 04:32:00,59.0,58.0,29.89,SSW,198,5.0,-999.0,97,-99.99,,,-99.99,,2013-07-26 08:32:00,
2013-07-26 04:52:00,59.0,58.0,29.89,SSW,193,3.0,-999.0,97,-99.99,,,-99.99,,2013-07-26 08:52:00,
2013-07-26 05:02:00,59.0,58.0,29.89,South,189,3.0,-999.0,97,-99.99,,,-99.99,,2013-07-26 09:02:00,
2013-07-26 05:12:00,59.0,58.0,29.90,South,175,2.0,-999.0,97,-99.99,,,-99.99,,2013-07-26 09:12:00,
2013-07-26 05:22:00,59.0,58.0,29.90,South,175,2.0,-999.0,97,-99.99,,,-99.99,,2013-07-26 09:22:00,
2013-07-26 05:32:00,59.0,58.0,29.90,SSW,194,2.0,-999.0,97,-99.99,,,-99.99,,2013-07-26 09:32:00,
2013-07-26 05:52:00,59.0,58.0,29.90,SSW,198,2.0,-999.0,97,-99.99,,,-99.99,,2013-07-26 09:52:00,
2013-07-26 06:02:00,59.0,58.0,29.90,SSW,197,1.0,-999.0,96,-99.99,,,-99.99,,2013-07-26 10:02:00,
2013-07-26 06:12:00,59.0,58.0,29.90,South,184,2.0,-999.0,97,-99.99,,,-99.99,,2013-07-26 10:12:00,
2013-07-26 06:22:00,59.0,58.0,29.90,South,184,2.0,-999.0,97,-99.99,,,-99.99,,2013-07-26 10:22:00,
2013-07-26 06:33:00,59.0,58.0,29.90,South,184,0.0,-999.0,97,-99.99,,,-99.99,,2013-07-26 10:33:00,
2013-07-26 06:42:00,59.0,58.0,29.89,SW,218,1.0,-999.0,97,-99.99,,,-99.99,,2013-07-26 10:42:00,
2013-07-26 06:52:00,59.0,58.0,29.89,SW,218,1.0,-999.0,97,-99.99,,,-99.99,,2013-07-26 10:52:00,
2013-07-26 07:02:00,59.0,58.0,29.89,SW,218,0.0,-999.0,97,-99.99,,,-99.99,,2013-07-26 11:02:00,
2013-07-26 07:12:00,59.0,58.0,29.89,SW,220,0.0,-999.0,97,-99.99,,,-99.99,,2013-07-26 11:12:00,
2013-07-26 07:22:00,59.0,58.0,29.89,SW,220,0.0,-999.0,97,-99.99,,,-99.99,,2013-07-26 11:22:00,
2013-07-26 07:32:00,60.0,59.0,29.89,West,279,0.0,-999.0,97,-99.99,,,-99.99,,2013-07-26 11:32:00,
2013-07-26 07:43:00,60.0,59.0,29.89,SW,232,0.0,-999.0,97,-99.99,,,-99.99,,2013-07-26 11:43:00,
2013-07-26 07:52:00,60.0,59.0,29.89,SW,232,0.0,-999.0,97,-99.99,,,-99.99,,2013-07-26 11:52:00,
2013-07-26 08:02:00,60.0,59.0,29.90,SW,221,0.0,-999.0,97,-99.99,,,-99.99,,2013-07-26 12:02:00,
2013-07-26 08:12:00,60.0,59.0,29.90,SW,221,0.0,-999.0,96,-99.99,,,-99.99,,2013-07-26 12:12:00,
2013-07-26 08:22:00,60.0,59.0,29.90,SW,221,0.0,-999.0,96,-99.99,,,-99.99,,2013-07-26 12:22:00,
2013-07-26 08:33:00,60.0,59.0,29.90,SW,221,0.0,-999.0,96,-99.99,,,-99.99,,2013-07-26 12:33:00,
2013-07-26 08:43:00,60.0,59.0,29.90,SW,221,0.0,-999.0,96,-99.99,,,-99.99,,2013-07-26 12:43:00,
2013-07-26 08:53:00,60.0,59.0,29.90,SW,221,0.0,-999.0,96,-99.99,,,-99.99,,2013-07-26 12:53:00,
2013-07-26 09:02:00,60.0,59.0,29.90,SW,221,0.0,-999.0,96,-99.99,,,-99.99,,2013-07-26 13:02:00,
2013-07-26 09:12:00,60.0,59.0,29.90,SW,221,0.0,-999.0,95,-99.99,,,-99.99,,2013-07-26 13:12:00,
2013-07-26 09:32:00,61.0,60.0,29.91,SW,221,0.0,-999.0,95,-99.99,,,-99.99,,2013-07-26 13:32:00,
2013-07-26 09:43:00,61.0,60.0,29.91,SW,221,0.0,-999.0,95,-99.99,,,-99.99,,2013-07-26 13:43:00,
2013-07-26 09:53:00,61.0,60.0,29.91,SW,221,0.0,-999.0,95,-99.99,,,-99.99,,2013-07-26 13:53:00,
2013-07-26 10:02:00,61.0,59.0,29.90,SW,214,1.0,-999.0,94,-99.99,,,-99.99,,2013-07-26 14:02:00,
2013-07-26 10:12:00,62.0,60.0,29.91,WNW,291,1.0,-999.0,94,-99.99,,,-99.99,,2013-07-26 14:12:00,
2013-07-26 10:32:00,62.0,60.0,29.91,SW,232,1.0,-999.0,94,-99.99,,,-99.99,,2013-07-26 14:32:00,
2013-07-26 10:43:00,62.0,60.0,29.91,SSW,213,1.0,-999.0,93,-99.99,,,-99.99,,2013-07-26 14:43:00,
2013-07-26 10:53:00,62.0,60.0,29.91,SSW,213,1.0,-999.0,93,-99.99,,,-99.99,,2013-07-26 14:53:00,
2013-07-26 11:02:00,62.0,60.0,29.91,South,185,2.0,-999.0,93,-99.99,,,-99.99,,2013-07-26 15:02:00,
2013-07-26 11:12:00,62.0,60.0,29.90,South,169,2.0,-999.0,93,-99.99,,,-99.99,,2013-07-26 15:12:00,
2013-07-26 11:22:00,62.0,60.0,29.90,South,169,2.0,-999.0,93,-99.99,,,-99.99,,2013-07-26 15:22:00,
2013-07-26 11:33:00,62.0,60.0,29.91,South,170,2.0,-999.0,93,-99.99,,,-99.99,,2013-07-26 15:33:00,
2013-07-26 11:43:00,62.0,60.0,29.91,South,170,1.0,-999.0,94,-99.99,,,-99.99,,2013-07-26 15:43:00,
2013-07-26 11:53:00,62.0,60.0,29.91,South,170,1.0,-999.0,94,-99.99,,,-99.99,,2013-07-26 15:53:00,
2013-07-26 12:02:00,62.0,60.0,29.90,South,170,0.0,-999.0,93,-99.99,,,-99.99,,2013-07-26 16:02:00,
2013-07-26 12:14:00,62.0,60.0,29.90,South,170,0.0,-999.0,93,-99.99,,,-99.99,,2013-07-26 16:14:00,
2013-07-26 12:22:00,62.0,60.0,29.90,South,170,0.0,-999.0,93,-99.99,,,-99.99,,2013-07-26 16:22:00,
2013-07-26 12:32:00,62.0,60.0,29.89,South,169,0.0,-999.0,94,-99.99,,,-99.99,,2013-07-26 16:32:00,
2013-07-26 12:43:00,62.0,60.0,29.88,South,169,0.0,-999.0,94,-99.99,,,-99.99,,2013-07-26 16:43:00,
2013-07-26 12:54:00,62.0,60.0,29.88,South,169,0.0,-999.0,94,-99.99,,,-99.99,,2013-07-26 16:54:00,
2013-07-26 13:02:00,62.0,60.0,29.88,SW,215,0.0,-999.0,94,-99.99,,,-99.99,,2013-07-26 17:02:00,
2013-07-26 13:12:00,62.0,61.0,29.89,SW,219,0.0,-999.0,95,-99.99,,,-99.99,,2013-07-26 17:12:00,
2013-07-26 13:22:00,62.0,61.0,29.89,SW,219,0.0,-999.0,95,-99.99,,,-99.99,,2013-07-26 17:22:00,
2013-07-26 13:33:00,61.0,60.0,29.87,SW,230,2.0,-999.0,95,-99.99,,,-99.99,,2013-07-26 17:33:00,
2013-07-26 13:43:00,61.0,60.0,29.88,ESE,103,0.0,-999.0,95,-99.99,,,-99.99,,2013-07-26 17:43:00,
2013-07-26 13:53:00,61.0,60.0,29.88,ESE,103,0.0,-999.0,95,-99.99,,,-99.99,,2013-07-26 17:53:00,
2013-07-26 14:03:00,60.0,58.0,29.88,SSE,147,1.0,-999.0,94,-99.99,,,-99.99,,2013-07-26 18:03:00,
2013-07-26 14:12:00,59.0,57.0,29.89,SE,129,3.0,-999.0,93,-99.99,,,-99.99,,2013-07-26 18:12:00,
2013-07-26 14:23:00,59.0,57.0,29.89,SE,129,3.0,-999.0,93,-99.99,,,-99.99,,2013-07-26 18:23:00,
2013-07-26 14:33:00,58.0,56.0,29.88,SSE,155,0.0,-999.0,94,-99.99,,,-99.99,,2013-07-26 18:33:00,
2013-07-26 14:43:00,57.0,56.0,29.90,SSE,155,0.0,-999.0,95,-99.99,,,-99.99,,2013-07-26 18:43:00,
2013-07-26 14:52:00,57.0,56.0,29.90,SSE,155,0.0,-999.0,95,-99.99,,,-99.99,,2013-07-26 18:52:00,
2013-07-26 15:03:00,57.0,56.0,29.88,SSE,155,0.0,-999.0,95,-99.99,,,-99.99,,2013-07-26 19:03:00,
2013-07-26 15:12:00,57.0,56.0,29.87,East,79,2.0,-999.0,96,-99.99,,,-99.99,,2013-07-26 19:12:00,
2013-07-26 15:22:00,57.0,56.0,29.87,East,79,2.0,-999.0,96,-99.99,,,-99.99,,2013-07-26 19:22:00,
2013-07-26 15:32:00,58.0,57.0,29.87,East,80,0.0,-999.0,96,-99.99,,,-99.99,,2013-07-26 19:32:00,
2013-07-26 15:43:00,58.0,57.0,29.88,East,80,0.0,-999.0,96,-99.99,,,-99.99,,2013-07-26 19:43:00,
2013-07-26 15:52:00,58.0,57.0,29.88,East,80,0.0,-999.0,96,-99.99,,,-99.99,,2013-07-26 19:52:00,
2013-07-26 16:02:00,59.0,58.0,29.87,East,79,0.0,-999.0,97,-99.99,,,-99.99,,2013-07-26 20:02:00,
2013-07-26 16:12:00,60.0,58.0,29.87,NNE,30,3.0,-999.0,93,-99.99,,,-99.99,,2013-07-26 20:12:00,
2013-07-26 16:22:00,60.0,58.0,29.87,NNE,30,3.0,-999.0,93,-99.99,,,-99.99,,2013-07-26 20:22:00,
2013-07-26 16:32:00,60.0,58.0,29.88,NE,49,2.0,-999.0,93,-99.99,,,-99.99,,2013-07-26 20:32:00,
2013-07-26 16:43:00,59.0,56.0,29.87,NE,36,2.0,-999.0,91,-99.99,,,-99.99,,2013-07-26 20:43:00,
2013-07-26 16:53:00,59.0,56.0,29.87,NE,36,2.0,-999.0,91,-99.99,,,-99.99,,2013-07-26 20:53:00,
2013-07-26 17:02:00,59.0,57.0,29.88,NNW,341,5.0,-999.0,92,-99.99,,,-99.99,,2013-07-26 21:02:00,
2013-07-26 17:12:00,57.0,55.0,29.88,NNE,26,5.0,-999.0,93,-99.99,,,-99.99,,2013-07-26 21:12:00,
2013-07-26 17:22:00,57.0,55.0,29.88,NNE,26,5.0,-999.0,93,-99.99,,,-99.99,,2013-07-26 21:22:00,
2013-07-26 17:32:00,56.0,54.0,29.89,North,10,5.0,-999.0,93,-99.99,,,-99.99,,2013-07-26 21:32:00,
2013-07-26 17:43:00,56.0,54.0,29.91,WNW,298,5.0,-999.0,94,-99.99,,,-99.99,,2013-07-26 21:43:00,
2013-07-26 17:53:00,56.0,54.0,29.91,WNW,298,5.0,-999.0,94,-99.99,,,-99.99,,2013-07-26 21:53:00,
2013-07-26 18:02:00,54.0,52.0,29.92,WNW,302,5.0,-999.0,92,-99.99,,,-99.99,,2013-07-26 22:02:00,
2013-07-26 18:12:00,53.0,51.0,29.92,NW,309,5.0,-999.0,93,-99.99,,,-99.99,,2013-07-26 22:12:00,
2013-07-26 18:22:00,53.0,51.0,29.92,NW,309,5.0,-999.0,93,-99.99,,,-99.99,,2013-07-26 22:22:00,
2013-07-26 18:33:00,52.0,50.0,29.92,NNW,329,5.0,-999.0,93,-99.99,,,-99.99,,2013-07-26 22:33:00,
2013-07-26 18:43:00,52.0,50.0,29.93,WNW,303,5.0,-999.0,94,-99.99,,,-99.99,,2013-07-26 22:43:00,
2013-07-26 18:53:00,52.0,50.0,29.93,WNW,303,5.0,-999.0,94,-99.99,,,-99.99,,2013-07-26 22:53:00,
2013-07-26 19:02:00,51.0,49.0,29.95,NW,309,6.0,-999.0,93,-99.99,,,-99.99,,2013-07-26 23:02:00,
2013-07-26 19:12:00,50.0,48.0,29.95,North,360,3.0,-999.0,94,-99.99,,,-99.99,,2013-07-26 23:12:00,
2013-07-26 19:22:00,50.0,48.0,29.95,North,360,3.0,-999.0,94,-99.99,,,-99.99,,2013-07-26 23:22:00,
2013-07-26 19:32:00,50.0,48.0,29.95,NNW,330,4.0,-999.0,94,-99.99,,,-99.99,,2013-07-26 23:32:00,
2013-07-26 19:43:00,49.0,47.0,29.95,NNE,13,4.0,-999.0,94,-99.99,,,-99.99,,2013-07-26 23:43:00,
2013-07-26 19:52:00,49.0,47.0,29.95,NNE,13,4.0,-999.0,94,-99.99,,,-99.99,,2013-07-26 23:52:00,
2013-07-26 20:02:00,49.0,47.0,29.94,NW,306,4.0,-999.0,94,-99.99,,,-99.99,,2013-07-27 00:02:00,
2013-07-26 20:12:00,49.0,48.0,29.95,NNW,340,5.0,-999.0,95,-99.99,,,-99.99,,2013-07-27 00:12:00,
2013-07-26 20:22:00,49.0,48.0,29.95,NNW,340,5.0,-999.0,95,-99.99,,,-99.99,,2013-07-27 00:22:00,
2013-07-26 20:32:00,49.0,48.0,29.96,NW,310,3.0,-999.0,95,-99.99,,,-99.99,,2013-07-27 00:32:00,
2013-07-26 20:43:00,49.0,48.0,29.96,NW,310,3.0,-999.0,95,-99.99,,,-99.99,,2013-07-27 00:43:00,
2013-07-26 20:53:00,49.0,48.0,29.96,WNW,292,4.0,-999.0,95,-99.99,,,-99.99,,2013-07-27 00:53:00,
2013-07-26 21:02:00,48.0,47.0,29.95,WNW,300,6.0,-999.0,95,-99.99,,,-99.99,,2013-07-27 01:02:00,
2013-07-26 21:12:00,48.0,47.0,29.95,WNW,300,6.0,-999.0,95,-99.99,,,-99.99,,2013-07-27 01:12:00,
2013-07-26 21:22:00,49.0,47.0,29.95,NW,323,5.0,-999.0,94,-99.99,,,-99.99,,2013-07-27 01:22:00,
2013-07-26 21:32:00,48.0,46.0,29.95,NW,318,5.0,-999.0,94,-99.99,,,-99.99,,2013-07-27 01:32:00,
2013-07-26 21:43:00,48.0,46.0,29.95,NW,318,5.0,-999.0,94,-99.99,,,-99.99,,2013-07-27 01:43:00,
2013-07-26 21:53:00,48.0,46.0,29.95,NW,318,5.0,-999.0,94,-99.99,,,-99.99,,2013-07-27 01:53:00,
2013-07-26 22:02:00,48.0,47.0,29.96,NW,310,6.0,-999.0,95,-99.99,,,-99.99,,2013-07-27 02:02:00,
2013-07-26 22:12:00,48.0,47.0,29.96,NW,320,5.0,-999.0,95,-99.99,,,-99.99,,2013-07-27 02:12:00,
2013-07-26 22:22:00,48.0,47.0,29.96,NW,320,5.0,-999.0,95,-99.99,,,-99.99,,2013-07-27 02:22:00,
2013-07-26 22:32:00,48.0,46.0,29.96,NW,309,4.0,-999.0,94,-99.99,,,-99.99,,2013-07-27 02:32:00,
2013-07-26 22:43:00,48.0,46.0,29.97,NNW,330,3.0,-999.0,94,-99.99,,,-99.99,,2013-07-27 02:43:00,
2013-07-26 22:53:00,48.0,46.0,29.97,NNW,330,3.0,-999.0,94,-99.99,,,-99.99,,2013-07-27 02:53:00,
2013-07-26 23:03:00,48.0,46.0,29.96,NW,309,2.0,-999.0,93,-99.99,,,-99.99,,2013-07-27 03:03:00,
2013-07-26 23:12:00,48.0,46.0,29.96,NNW,332,2.0,-999.0,93,-99.99,,,-99.99,,2013-07-27 03:12:00,
2013-07-26 23:22:00,48.0,46.0,29.96,NNW,332,2.0,-999.0,93,-99.99,,,-99.99,,2013-07-27 03:22:00,
2013-07-26 23:33:00,48.0,46.0,29.96,NW,305,3.0,-999.0,93,-99.99,,,-99.99,,2013-07-27 03:33:00,
2013-07-26 23:44:00,47.0,45.0,29.96,NW,321,2.0,-999.0,93,-99.99,,,-99.99,,2013-07-27 03:44:00,
2013-07-26 23:52:00,47.0,45.0,29.96,NW,321,2.0,-999.0,93,-99.99,,,-99.99,,2013-07-27 03:52:00,